Location: Ostrava
(49.8330°N, 18.2830°E)
Time: 03:55:04
(UTC+01:00)

NOAA 19 - Visible Passes

Search period start: 26 October 2014 00:00
Search period end: 04 November 2014 23:00
Orbit: 842 x 864 km, 99.0° (Epoch: 25 October)

Date Brightness Start Highest point End Pass type
(mag) Time Alt. Az. Time Alt. Az. Time Alt. Az.
26 Oct 7.5 02:02:04 10° NNE 02:03:22 18° NNE 02:03:22 18° NNE visible
26 Oct 7.0 03:43:30 10° N 03:45:25 18° NNW 03:45:25 18° NNW visible
27 Oct 7.7 01:51:02 10° NNE 01:52:02 16° NNE 01:52:02 16° NNE visible
27 Oct 7.0 03:32:14 10° N 03:34:04 19° NNW 03:34:04 19° NNW visible
28 Oct 7.9 01:40:01 10° NNE 01:40:41 13° NNE 01:40:41 13° NNE visible
28 Oct 7.0 03:20:59 10° N 03:22:44 19° N 03:22:44 19° N visible
29 Oct 8.0 01:29:03 10° NNE 01:29:20 11° NNE 01:29:20 11° NNE visible
29 Oct 7.1 03:09:46 10° N 03:11:23 19° N 03:11:23 19° N visible
30 Oct 7.2 02:58:35 10° N 03:00:03 19° N 03:00:03 19° N visible
31 Oct 7.3 02:47:25 10° N 02:48:42 18° N 02:48:42 18° N visible
31 Oct 7.3 04:30:13 10° NNW 04:30:45 11° NNW 04:30:45 11° NNW visible
01 Nov 7.5 02:36:16 10° NNE 02:37:21 16° N 02:37:21 16° N visible
01 Nov 7.3 04:18:36 10° NNW 04:19:24 12° NNW 04:19:24 12° NNW visible
02 Nov 7.6 02:25:09 10° NNE 02:26:01 15° NNE 02:26:01 15° NNE visible
02 Nov 7.3 04:07:08 10° NNW 04:08:03 13° NNW 04:08:03 13° NNW visible
03 Nov 7.8 02:14:03 10° NNE 02:14:40 13° NNE 02:14:40 13° NNE visible
03 Nov 7.3 03:55:45 10° N 03:56:43 14° NNW 03:56:43 14° NNW visible
04 Nov 7.9 02:02:58 10° NNE 02:03:19 12° NNE 02:03:19 12° NNE visible
04 Nov 7.3 03:44:25 10° N 03:45:22 14° NNW 03:45:22 14° NNW visible
